Regional Weather Roundup
Issued by NWS

Home | Current Version | Previous Version | Text Only | Print | Product List | Glossary On
Versions: 1 2 3 4 5 6 7 8 9 10 11 12 13 14 15 16 17 18 19 20 21 22 23 24 25 26 27 28 29 30 31 32 33 34 35 36 37 38 39 40 41 42 43 44 45 46 47 48 49 50
000
ASHW40 PHFO 260843
RWRHI

WEATHER ROUNDUP FOR HAWAII
NATIONAL WEATHER SERVICE HONOLULU HI
1000 PM HST SAT APR 25 2015

THIS IS AN AUTOMATED REPORT THAT HAS NOT BEEN QUALITY CONTROLLED.

NOTE..."FAIR" INDICATES FEW OR NO CLOUDS BELOW 12,000 FEET WITH NO
SIGNIFICANT WEATHER AND/OR OBSTRUCTIONS TO VISIBILITY.

* - THESE SITES REPORT LIMITED FIELDS

HIZ001>004-260900-
KAUAI-NIIHAU-

CITY           SKY/WX    TMP DP  RH WIND       PRES   REMARKS
LIHUE APT      CLOUDY    74  70  87 W5        29.98R
PORT ALLEN*      N/A     73 N/A N/A NW6         N/A
POIPU*           N/A     75 N/A N/A SW7         N/A
PRINCEVILLE*     N/A     72 N/A N/A MISG        N/A
KOKOLE POINT*  NOT AVBL
MOLOAA DAIRY*  NOT AVBL
WAIMEA HTS*      N/A     72  72 100 CALM        N/A
PUU OPAE*        N/A     66  66 100 NW5         N/A
PUU LUA*       NOT AVBL
MAKAHA RIDGE*    N/A     66  66 100 CALM        N/A
$$

HIZ005>011-260900-
OAHU-

CITY           SKY/WX    TMP DP  RH WIND       PRES   REMARKS
HONOLULU       PTCLDY    73  70  90 S6        30.00R
KALAELOA       PTCLDY    77  68  73 S8        30.01R
KANEOHE MCB    CLEAR     78  67  68 S7        29.96R
WHEELER FIELD  FAIR      71  68  91 S3        30.00
BELLOWS*         N/A    N/A N/A N/A S6          N/A
KAHUKU*          N/A    N/A N/A N/A NE2         N/A
WHEELER*       NOT AVBL
WAIANAE HARBOR NOT AVBL
DILLINGHAM*      N/A     75  61  60 MISG        N/A
KAHUKU TRN*      N/A     73  64  73 SE2G8       N/A
KAWAILOA*        N/A     70  68  94 SE8G14      N/A
KII*             N/A     77  64  65 SE8         N/A
MAKUA RANGE*     N/A     79  64  61 SW7G14      N/A
OAHU FOREST NW   N/A    N/A N/A N/A CALM        N/A
SCHOFIELD BRK*   N/A     72  66  83 MISG        N/A
SCHOFIELD S*   NOT AVBL
WAIANAE VLY*     N/A     81  77  89 N3          N/A
KUAOKALA*        N/A     73  66  78 S18G25      N/A
HONOULIUULI*   NOT AVBL
MOKUOLOE IS*     N/A    N/A N/A N/A MISG        N/A
PALEHUA*         N/A     66  64  94 SE3G9       N/A
WAIAWA PHB*    NOT AVBL
$$

HIZ012>013-260900-
MOLOKAI-

CITY           SKY/WX    TMP DP  RH WIND       PRES   REMARKS
MOLOKAI AIRPT  CLOUDY    72  68  88 CALM      30.02S
KALAUPAPA      NOT AVBL
MAKAPULAPAI*     N/A     75  66  73 SW6         N/A
MOLOKAI 1*       N/A     64  64 100 CALM        N/A
PUU ALII*        N/A     57  56  98 CALM        N/A
$$

HIZ016-260900-
KAHOOLAWE-

CITY           SKY/WX    TMP DP  RH WIND       PRES   REMARKS
KAHOOLAWE*       N/A     68 N/A N/A SE7         N/A
HAKIOAWA*        N/A     69  67  94 MISG      30.45R
HONOKANAIA*      N/A     75  69  80 NE7G13    30.03R
KANELOA*         N/A     72  68  88 MISG      29.23R
KEALIALALO*      N/A     70  66  88 S3G12     30.03R
LUA MAKIKA*    NOT AVBL
$$

HIZ014>015-260900-
LANAI-

CITY           SKY/WX    TMP DP  RH WIND       PRES   REMARKS
LANAI CITY     MOCLDY    66  66 100 E6        30.08R FOG
LANAI 1*         N/A     70  66  88 SE5         N/A
$$

HIZ017>028-260900-
MAUI-

CITY           SKY/WX    TMP DP  RH WIND       PRES   REMARKS
KAHULUI        PTCLDY    75  67  76 CALM      30.01R
KAPALUA-W MAUI NOT AVBL
HANA AIRPORT   MOCLDY    73  66  78 CALM      30.05R
HANA*            N/A     75 N/A N/A SE3         N/A
HALEAKALA SUMM   N/A     46  37  71 W7G18       N/A
MAALAEA BAY*   NOT AVBL
HALEAKALA*     NOT AVBL
KAUPO GAP*       N/A     61  57  88 CALM        N/A
KULA 1*          N/A     52  51  98 E3          N/A
$$

HIZ023>026-260900-
BIG ISLAND OF HAWAII COAST AND LOWER SLOPES-

CITY           SKY/WX    TMP DP  RH WIND       PRES   REMARKS
KAILUA KONA    PTCLDY    78  68  71 CALM      30.00R
HILO           CLOUDY    72  67  84 SW5       30.03R
HONOKAA*       NOT AVBL
KAWAIHAE MWT*    N/A     77 N/A N/A E6          N/A
KAWAIHAE*        N/A     79 N/A N/A E3          N/A
SOUTH POINT*     N/A     70 N/A N/A NE12        N/A
UPOLU AIRPORT*   N/A    N/A N/A N/A SE7         N/A
KAMUELA*       MOSUNNY   57  54  88 CALM      30.12S
HAKALAU*         N/A     50  50 100 SW2         N/A
KALOKO-HONOKO* NOT AVBL
PALI 2*          N/A    N/A N/A N/A NE3         N/A
KEALAKOMO*       N/A     75  66  73 N3          N/A
KAUPULEHU*       N/A     72  63  73 SE3         N/A
KAPAPALA*        N/A     64  64  98 NE3         N/A
LOWER KAHUKU*  NOT AVBL
PUHE CS*         N/A     75  61  60 E3          N/A
PUHO CS*       NOT AVBL
PTA KEAMUKU*     N/A     59  55  88 CALM        N/A
WAIKOLOA*        N/A     68  59  73 SE5         N/A
$$

HIZ027>028-260900-
BIG ISLAND OF HAWAII INTERIOR AND SUMMMITS-

CITY           SKY/WX    TMP DP  RH WIND       PRES   REMARKS
BRADSHAW FIELD CLEAR     51  42  71 CALM      30.33R
MK VISITOR CEN NOT AVBL
MAUNA KEA*       N/A     36  19  51 NW22        N/A  WCI  24
MAUNA LOA*       N/A    N/A N/A N/A MISG        N/A
MAUNA LOA 1*   NOT AVBL
PTA KIPUKA*      N/A     50  50 100 SE2         N/A
PTA RANGE 17*    N/A     55  54  94 NW3         N/A
PTA WEST*        N/A     70  68  94 SE7         N/A
NENE CABIN*    NOT AVBL
AHUMOA*          N/A     50  45  82 E3          N/A
PTA PORTABLE*  NOT AVBL
PUU MALI*        N/A     50  46  87 S2          N/A
$$

HIC003-260900-
NORTHWEST ISLANDS-

CITY           SKY/WX    TMP DP  RH WIND       PRES   REMARKS
MIDWAY ISLAND  MOCLDY    64  54  68 E18G30    30.33R
MIDWAY NOS*    NOT AVBL
FRENCH FRIGATE NOT AVBL
$$

PHZ110>124-180-260900-
BUOY REPORTS

STATION/POSITION TIME  TEMP    WIND        PRES    WAVE   SWELL
                       AIR SEA DIR/SP/G            HT/PER HT/DIR
                 (UTC) (F)     (DEG/KT/KT) (MB)    (FT/S) (FT/D)
BUOY 51001       NOT AVBL
BUOY 51101       0800   73 75  260/  6/ 10 1014.4R   6/ 9   7/ 90
BUOY 51100       0800   72 75  300/  4/  6 1014.6
BUOY 51002       0800   78 79   90/ 14/ 16 1015.0R   6/10   5/ 80
BUOY 51003       0800   78 79  160/ 10/ 12 1015.1R   7/10   7
BUOY 51004       0736   77 77  100/ 16/ 17 1016.3R   8/ 9   7/ 70
BARBERS PT BUOY  NOT AVBL
WAIMEA BAY BUOY  0800      78                N/A     4/10   2/310
KAILUA BAY BUOY  0800      76                N/A     6/ 9   2/ 80
LANAI BUOY       0800      78                N/A     4/11   2/220
BARBERS PT 2     0800      78                N/A     6/ 6   2/180
PAUWELA MAUI     0800      77                N/A     6/ 9   2/ 80
HILO             0800      77                N/A     7/ 9   2/ 90
KANEOHE BAY BUOY 0800      76                N/A     5/ 9   2/ 70
HANALEI KAUAI    0800      78                N/A     6/ 9   2/350
KAHULUI HARBOR   0800   76 78  290/  4/  4 1016.0R
HONOLULU HARBOR  0800   77 80  200/  4/  5 1015.9S
KILO NALU        NOT AVBL
HILO HARBOR      0800   73 76  200/  4/  5 1016.8R
MOKUOLOE         0800      79              1015.2S
NAWILIWILI       0800   76 78  260/  8/ 12 1014.8R
WHOTS BUOY       NOT AVBL
BUOY 51028       NOT AVBL
$$

......................KEY........................................
  SKY/WX - SKY CONDITIONS/PRESENT WEATHER
  TMP    - TEMPERATURE IN FAHRENHEIT
  DWPT   - DEWPOINT IN FAHRENHEIT
  RH     - RELATIVE HUMIDITY IN PERCENT
  WIND   - DIRECTION AND SPEED /MPH FOR ISLANDS...KTS FOR BUOYS/
  PRES   - MEAN SEA LEVEL PRESSURE IN INCHES OF HG
  VSB    - VISIBILITY IN MILES
  HX     - HEAT INDEX
  WCI    - WIND CHILL INDEX
  VRB    - VARIABLE WIND DIRECTION
  N/A    - NOT AVAILABLE



USA.gov is the U.S. government's official web portal to all federal, state and local government web resources and services.